Lakeville, MN

10:04 AM CDT on September 23, 2017 (GMT -0500)
Airlake

Weather History for KLVN - October, 2012

Change the Weather History Date:

Friday, October 12, 2012

  Actual Average Record
Temperature  
Mean Temperature 35 °F -  
Max Temperature 51 °F 60 °F 85 °F (1956)
Min Temperature 19 °F 38 °F 19 °F (2012)
Degree Days  
Heating Degree Days 30    
Moisture  
Dew Point 19 °F    
Average Humidity 57    
Maximum Humidity 100    
Minimum Humidity 24    
Precipitation  
Precipitation 0.00 in - - ()
Sea Level Pressure  
Sea Level Pressure 30.31 in    
Wind  
Wind Speed 4 mph (SSE)    
Max Wind Speed 14 mph    
Max Gust Speed 18 mph    
Visibility 9 miles    
Events      
Averages and records for this station are not official NWS values.
T = Trace of Precipitation, MM = Missing Value Source: NWS Daily Summary

Daily Weather History Graph

Daily Weather History Graph

Search for Another Location

Airport or City:

Trip Planner

Search our weather history database for the weather conditions in past years. The results will help you decide how hot, cold, wet, or windy it might be!

Date:

Astronomy

Oct. 12, 2012 Rise Set
Actual Time 7:25 AM CDT 6:32 PM CDT
Civil Twilight 6:55 AM CDT 7:01 PM CDT
Nautical Twilight 6:21 AM CDT 7:35 PM CDT
Astronomical Twilight 5:48 AM CDT 8:09 PM CDT
Moon 4:02 AM CDT (10/12) 4:48 PM CDT (10/12)
Length of Visible Light 12h 06m
Length of Day
11h 07m
Waning Crescent, 10% of the Moon is Illuminated
Oct 12
Waning Crescent
Oct 15
New
Oct 21
First Quarter
Oct 29
Full
Nov 6
Last Quarter

Hourly Weather History & Observations

Time (CDT) Temp. Windchill Dew Point Humidity Pressure Visibility Wind Dir Wind Speed Gust Speed Precip Events Conditions
12:13 AM 30.2 °F 26.7 °F 21.2 °F 69% 30.39 in 10.0 mi WNW 3.5 mph - N/A   Clear
12:33 AM 30.2 °F 25.4 °F 21.2 °F 69% 30.40 in 10.0 mi WNW 4.6 mph - N/A   Clear
12:52 AM 28.4 °F 24.6 °F 19.4 °F 69% 30.40 in 10.0 mi WNW 3.5 mph - N/A   Clear
1:13 AM 26.6 °F 22.6 °F 19.4 °F 74% 30.40 in 10.0 mi West 3.5 mph - N/A   Clear
1:33 AM 26.6 °F - 19.4 °F 74% 30.41 in 10.0 mi Calm Calm - N/A   Clear
1:53 AM 24.8 °F - 19.4 °F 80% 30.41 in 10.0 mi Calm Calm - N/A   Clear
2:13 AM 23.0 °F - 19.4 °F 86% 30.42 in 10.0 mi Calm Calm - N/A   Clear
2:33 AM 21.2 °F - 19.4 °F 93% 30.42 in 10.0 mi Calm Calm - N/A   Clear
2:53 AM 21.2 °F - 17.6 °F 86% 30.42 in 10.0 mi Calm Calm - N/A   Clear
3:13 AM 21.2 °F - 19.4 °F 93% 30.42 in 10.0 mi Calm Calm - N/A   Clear
3:33 AM 19.4 °F - 17.6 °F 93% 30.41 in 10.0 mi Calm Calm - N/A   Clear
3:52 AM 21.2 °F - 19.4 °F 93% 30.41 in 10.0 mi Calm Calm - N/A   Clear
4:13 AM 19.4 °F - 17.6 °F 93% 30.42 in 10.0 mi Calm Calm - N/A   Clear
4:33 AM 21.2 °F - 19.4 °F 93% 30.43 in 10.0 mi Calm Calm - N/A   Clear
4:52 AM 19.4 °F - 17.6 °F 93% 30.43 in 10.0 mi Calm Calm - N/A   Clear
5:13 AM 19.4 °F - 17.6 °F 93% 30.43 in 10.0 mi Calm Calm - N/A   Clear
5:52 AM 19.4 °F - 17.6 °F 93% 30.42 in 7.0 mi Calm Calm - N/A   Clear
6:13 AM 19.4 °F - 17.6 °F 93% 30.42 in 4.0 mi Calm Calm - N/A   Clear
6:33 AM 19.4 °F - 17.6 °F 93% 30.42 in 7.0 mi Calm Calm - N/A   Clear
6:52 AM 19.4 °F - 17.6 °F 93% 30.43 in 5.0 mi Calm Calm - N/A   Clear
7:13 AM 19.4 °F - 19.4 °F 100% 30.43 in 10.0 mi Calm Calm - N/A   Clear
7:32 AM 19.4 °F - 19.4 °F 100% 30.42 in 7.0 mi Calm Calm - N/A   Clear
7:53 AM 19.4 °F - 17.6 °F 93% 30.43 in 4.0 mi Calm Calm - N/A   Clear
8:12 AM 21.2 °F - 19.4 °F 93% 30.43 in 7.0 mi Calm Calm - N/A   Clear
8:33 AM 24.8 °F - 21.2 °F 86% 30.43 in 5.0 mi Calm Calm - N/A   Clear
9:13 AM 30.2 °F - 24.8 °F 80% 30.43 in 10.0 mi Calm Calm - N/A   Clear
9:33 AM 33.8 °F 29.6 °F 24.8 °F 70% 30.43 in 10.0 mi SSE 4.6 mph - N/A   Clear
9:53 AM 37.4 °F 31.4 °F 23.0 °F 56% 30.42 in 10.0 mi SE 8.1 mph - N/A   Clear
10:13 AM 37.4 °F 32.1 °F 23.0 °F 56% 30.42 in 10.0 mi ESE 6.9 mph - N/A   Clear
10:33 AM 39.2 °F 33.6 °F 23.0 °F 52% 30.42 in 10.0 mi SSE 8.1 mph - N/A   Clear
11:13 AM 42.8 °F 36.2 °F 21.2 °F 42% 30.40 in 10.0 mi ESE 12.7 mph 18.4 mph N/A   Clear
11:33 AM 42.8 °F 37.5 °F 19.4 °F 39% 30.40 in 10.0 mi SE 9.2 mph - N/A   Clear
12:13 PM 44.6 °F 40.2 °F 19.4 °F 37% 30.38 in 10.0 mi SSE 8.1 mph - N/A   Clear
12:33 PM 46.4 °F 41.5 °F 19.4 °F 34% 30.36 in 10.0 mi South 10.4 mph - N/A   Clear
12:53 PM 46.4 °F 41.5 °F 19.4 °F 34% 30.35 in 7.0 mi SSE 10.4 mph - N/A   Clear
1:33 PM 48.2 °F - 15.8 °F 27% 30.33 in 10.0 mi SSE 12.7 mph 16.1 mph N/A   Clear
1:53 PM 48.2 °F - 15.8 °F 27% 30.32 in 10.0 mi SE 11.5 mph 17.3 mph N/A   Clear
2:13 PM 50.0 °F - 15.8 °F 26% 30.31 in 10.0 mi SE 11.5 mph 17.3 mph N/A   Clear
2:33 PM 50.0 °F - 15.8 °F 26% 30.30 in 10.0 mi South 9.2 mph 16.1 mph N/A   Clear
2:53 PM 51.8 °F - 15.8 °F 24% 30.28 in 7.0 mi South 12.7 mph 17.3 mph N/A   Clear
3:13 PM 51.8 °F - 15.8 °F 24% 30.28 in 7.0 mi SSE 10.4 mph 17.3 mph N/A   Clear
3:33 PM 51.8 °F - 15.8 °F 24% 30.27 in 10.0 mi SE 12.7 mph 18.4 mph N/A   Clear
3:53 PM 51.8 °F - 15.8 °F 24% 30.26 in 10.0 mi South 11.5 mph 18.4 mph N/A   Clear
4:13 PM 51.8 °F - 17.6 °F 26% 30.25 in 7.0 mi SSE 10.4 mph - N/A   Clear
4:33 PM 51.8 °F - 17.6 °F 26% 30.24 in 7.0 mi South 13.8 mph 18.4 mph N/A   Clear
5:12 PM 50.0 °F - 17.6 °F 28% 30.22 in 7.0 mi South 11.5 mph 17.3 mph N/A   Clear
5:53 PM 48.2 °F - 17.6 °F 30% 30.20 in 10.0 mi SSE 9.2 mph - N/A   Clear
6:13 PM 48.2 °F - 17.6 °F 30% 30.19 in 10.0 mi SSE 6.9 mph - N/A   Clear
6:33 PM 46.4 °F 42.9 °F 17.6 °F 32% 30.17 in 10.0 mi SSE 6.9 mph - N/A   Clear
6:52 PM 44.6 °F 42.2 °F 17.6 °F 34% 30.17 in 7.0 mi SSE 4.6 mph - N/A   Clear
7:13 PM 44.6 °F 41.4 °F 17.6 °F 34% 30.15 in 10.0 mi SE 5.8 mph - N/A   Clear
7:33 PM 42.8 °F 38.6 °F 17.6 °F 36% 30.14 in 10.0 mi SE 6.9 mph - N/A   Clear
7:53 PM 42.8 °F 40.1 °F 17.6 °F 36% 30.13 in 10.0 mi SE 4.6 mph - N/A   Clear
8:13 PM 42.8 °F 39.3 °F 17.6 °F 36% 30.13 in 10.0 mi SE 5.8 mph - N/A   Clear
8:33 PM 41.0 °F 38.0 °F 17.6 °F 39% 30.11 in 10.0 mi SE 4.6 mph - N/A   Clear
9:13 PM 42.8 °F 38.6 °F 17.6 °F 36% 30.11 in 10.0 mi SSE 6.9 mph - N/A   Mostly Cloudy
9:33 PM 42.8 °F 38.6 °F 17.6 °F 36% 30.09 in 10.0 mi SE 6.9 mph - N/A   Overcast
9:52 PM 44.6 °F 39.7 °F 17.6 °F 34% 30.09 in 10.0 mi SE 9.2 mph - N/A   Overcast
10:13 PM 44.6 °F 39.2 °F 19.4 °F 37% 30.08 in 10.0 mi SSE 10.4 mph - N/A   Overcast
10:53 PM 46.4 °F 40.4 °F 19.4 °F 34% 30.06 in 10.0 mi SSE 13.8 mph - N/A   Overcast
11:33 PM 46.4 °F 42.4 °F 21.2 °F 37% 30.05 in 10.0 mi SSE 8.1 mph 18.4 mph N/A   Overcast
11:53 PM 46.4 °F 41.1 °F 24.8 °F 43% 30.04 in 10.0 mi South 11.5 mph 17.3 mph N/A   Overcast